CST,Max TemperatureF,Mean TemperatureF,Min TemperatureF,Max Dew PointF,MeanDew PointF,Min DewpointF,Max Humidity, Mean Humidity, Min Humidity, Max Sea Level PressureIn, Mean Sea Level PressureIn, Min Sea Level PressureIn, Max VisibilityMiles, Mean VisibilityMiles, Min VisibilityMiles, Max Wind SpeedMPH, Mean Wind SpeedMPH, Max Gust SpeedMPH,PrecipitationIn, CloudCover, Events, WindDirDegrees
2011-11-1,57,49,41,37,34,29,76,61,46,30.12,29.96,29.85,10,10,9,17,7,22,T,4,Rain,346
2011-11-2,50,39,28,33,28,23,72,56,39,30.31,30.23,30.12,10,10,10,17,7,24,0.00,3,,337
2011-11-3,53,37,21,30,21,16,96,59,22,30.38,30.30,30.22,10,10,9,9,3,13,0.00,0,,243
2011-11-4,53,37,21,31,22,18,92,58,24,30.28,30.19,30.05,10,10,10,22,11,28,0.00,0,,154
2011-11-5,60,49,37,40,36,31,85,64,43,30.04,29.83,29.66,10,10,8,32,18,43,0.00,1,,157
2011-11-6,50,44,37,43,36,21,82,64,45,29.95,29.67,29.53,10,10,9,29,15,41,T,5,,191
2011-11-7,47,37,27,27,23,18,85,64,42,30.28,30.17,30.00,10,10,10,20,9,24,0.00,0,,255
2011-11-8,49,34,19,29,23,19,100,67,34,30.28,30.23,30.15,10,9,6,7,1,13,0.00,0,,38
2011-11-9,47,37,26,28,24,21,85,62,38,30.20,30.09,29.99,10,10,6,28,11,35,T,3,Snow,315
2011-11-10,39,30,20,27,23,18,84,68,52,30.12,30.05,29.98,10,10,9,24,11,31,T,6,Snow,311
2011-11-11,51,39,26,25,22,17,85,59,33,29.94,29.69,29.57,10,10,10,20,8,24,0.00,3,,175
2011-11-12,63,43,23,36,27,21,88,56,23,29.59,29.42,29.19,10,10,10,21,9,29,0.00,0,,160
2011-11-13,43,36,29,34,29,26,85,73,60,29.48,29.32,29.18,10,10,9,17,7,21,0.00,3,,251
2011-11-14,50,37,23,29,25,20,88,62,36,29.64,29.51,29.44,10,10,10,26,9,33,0.00,1,,218
2011-11-15,49,38,26,32,23,16,85,63,41,29.95,29.70,29.53,10,10,10,35,13,44,0.00,3,,280
2011-11-16,32,26,20,18,13,10,77,62,46,30.19,30.10,29.96,10,10,10,25,15,32,0.00,5,,283
2011-11-17,29,20,11,11,9,6,92,66,39,30.25,30.12,29.82,10,10,10,14,7,18,0.00,2,,243
2011-11-18,42,34,26,27,23,10,92,67,42,29.80,29.71,29.60,10,10,10,16,6,23,0.00,4,,91
2011-11-19,31,26,20,27,20,12,88,78,68,30.19,29.89,29.73,10,5,0,17,10,22,0.22,8,Fog-Snow,356
2011-11-20,23,14,4,12,7,1,92,77,62,30.45,30.36,30.17,10,10,8,12,2,17,0.00,3,,10
2011-11-21,31,17,2,28,18,0,100,93,85,30.38,30.29,30.20,10,5,1,10,6,13,0.00,7,,130
2011-11-22,36,34,31,33,31,28,96,89,82,30.26,30.12,30.03,6,4,2,12,4,13,0.00,8,,139
2011-11-23,46,36,26,36,31,26,100,83,65,30.13,30.07,30.00,9,3,0,13,7,16,0.00,2,Fog,172
2011-11-24,53,42,31,40,35,29,96,78,59,29.97,29.81,29.65,10,8,4,18,7,21,0.00,0,,164
2011-11-25,48,39,29,45,33,28,100,88,76,29.73,29.67,29.63,10,4,0,14,3,16,0.00,3,Fog,91
2011-11-26,48,41,34,45,38,28,100,88,75,30.14,29.84,29.63,10,7,1,25,13,33,0.00,8,,326
2011-11-27,34,29,23,28,23,21,82,72,61,30.26,30.22,30.14,10,10,10,23,9,31,0.00,7,,327
2011-11-28,42,31,20,29,23,18,92,69,45,30.31,30.15,29.99,10,10,10,17,8,23,0.00,0,,202
2011-11-29,40,28,16,21,15,11,84,58,32,30.43,30.31,30.12,10,10,10,12,3,16,0.00,0,,306
2011-11-30,36,28,19,28,20,12,84,66,47,30.17,30.03,29.93,10,9,3,8,4,10,0.01,5,Snow,71